�N����,�����b,�ŏ������i�x�j,���ϕ����i�x�j,�ő啗���i�x�j,�ŏ�����(m/s),���ϕ���(m/s),�ő啗��(m/s),�C��(���j,���x�i���j,�C��(hPa),�~�J��(mm),�~�J����(�b�j,�~�J���x(mm/h),�ő�~�J���x(mm/h),�~�Ђ傤��(hit/���u),�~�Ђ傤����(�b�j,�~�Ђ傤���x(hit/���uh),�ő�~�Ђ傤���x(hit/���uh),�q�[�^���x(���j,�q�[�^�[�d���iV),�d���d���iV),�Q�Ɠd���iV)
2013/10/01,00:00:01,009,024,037,0.8,1.3,1.7,24.5,86.1,1005.3,0.00,0,0.0,////,0.0,0,0.0,////,23.4,0.0,12.3,3.521
2013/10/01,00:10:01,058,074,099,0.6,0.9,1.2,24.6,86.2,1005.4,0.00,0,0.0,////,0.0,0,0.0,////,23.2,0.0,12.3,3.523
2013/10/01,00:20:01,066,083,103,1.3,1.7,2.0,24.5,81.9,1005.4,0.00,0,0.0,////,0.0,0,0.0,////,24.1,0.0,12.3,3.521
2013/10/01,00:30:01,062,072,081,1.5,1.7,1.9,25.5,75.1,1005.4,0.00,0,0.0,////,0.0,0,0.0,////,24.3,0.0,12.3,3.523
2013/10/01,00:40:01,066,077,088,2.5,2.7,2.9,26.0,72.9,1005.3,0.00,0,0.0,////,0.0,0,0.0,////,24.6,0.0,12.3,3.520
2013/10/01,00:50:01,080,087,094,2.2,2.9,3.9,26.1,71.7,1005.3,0.00,0,0.0,////,0.0,0,0.0,////,24.8,0.0,12.3,3.521
2013/10/01,01:00:01,074,076,078,1.6,2.1,2.6,26.1,72.4,1005.4,0.00,0,0.0,////,0.0,0,0.0,////,25.0,0.0,12.3,3.523
2013/10/01,01:10:01,090,098,103,2.0,2.2,2.4,26.1,73.0,1005.2,0.00,0,0.0,////,0.0,0,0.0,////,25.0,0.0,12.2,3.521
2013/10/01,01:20:01,075,081,086,1.9,2.1,2.3,26.1,73.4,1005.2,0.00,0,0.0,////,0.0,0,0.0,////,25.0,0.0,12.3,3.521
2013/10/01,01:30:01,036,054,081,2.8,3.1,3.5,26.1,73.3,1005.0,0.00,0,0.0,////,0.0,0,0.0,////,25.3,0.0,12.3,3.523
2013/10/01,01:40:01,073,084,092,1.0,1.3,1.5,26.1,71.9,1005.0,0.00,0,0.0,////,0.0,0,0.0,////,25.0,0.0,12.3,3.523
2013/10/01,01:50:01,107,120,128,1.6,1.8,1.9,26.0,72.5,1004.9,0.00,0,0.0,////,0.0,0,0.0,////,25.0,0.0,12.3,3.521
2013/10/01,02:00:01,079,089,095,2.4,2.8,3.0,26.0,73.0,1004.9,0.00,0,0.0,////,0.0,0,0.0,////,25.1,0.0,12.3,3.521
2013/10/01,02:10:01,051,081,098,1.5,1.8,2.1,26.0,73.8,1004.8,0.00,0,0.0,////,0.0,0,0.0,////,25.0,0.0,12.3,3.521
2013/10/01,02:20:01,067,069,071,2.2,3.0,3.8,25.9,71.8,1004.8,0.00,0,0.0,////,0.0,0,0.0,////,24.8,0.0,12.3,3.521
2013/10/01,02:30:01,054,067,080,3.2,3.4,3.8,26.0,71.0,1004.8,0.00,0,0.0,////,0.0,0,0.0,////,24.8,0.0,12.3,3.521
2013/10/01,02:40:01,086,094,109,2.6,2.8,3.3,25.9,68.5,1004.8,0.00,0,0.0,////,0.0,0,0.0,////,25.0,0.0,12.3,3.521
2013/10/01,02:50:01,061,077,093,1.2,1.6,1.9,26.0,69.7,1004.7,0.00,0,0.0,////,0.0,0,0.0,////,25.0,0.0,12.3,3.521
2013/10/01,03:00:01,118,129,139,1.2,1.6,2.0,25.9,71.2,1004.6,0.00,0,0.0,////,0.0,0,0.0,////,24.6,0.0,12.3,3.521
2013/10/01,03:10:01,071,075,078,3.6,3.9,4.2,25.9,71.9,1004.6,0.00,0,0.0,////,0.0,0,0.0,////,24.6,0.0,12.3,3.521
2013/10/01,03:20:01,055,064,069,1.7,2.1,2.6,25.9,71.9,1004.6,0.00,0,0.0,////,0.0,0,0.0,////,24.6,0.0,12.3,3.521
2013/10/01,03:30:01,066,074,090,3.1,3.4,3.6,26.0,72.4,1004.6,0.00,0,0.0,////,0.0,0,0.0,////,25.0,0.0,12.2,3.521
2013/10/01,03:40:01,064,070,074,6.7,7.0,7.7,26.1,75.3,1004.5,0.00,0,0.0,////,0.0,0,0.0,////,25.1,0.0,12.3,3.521
2013/10/01,03:50:01,082,085,087,2.4,2.6,2.7,25.2,80.1,1004.7,0.09,30,3.5,////,0.0,0,0.0,////,24.4,0.0,12.3,3.521
2013/10/01,04:00:01,119,131,148,1.6,1.7,1.9,24.5,83.4,1004.6,0.38,290,0.0,////,0.0,0,0.0,////,23.2,0.0,12.3,3.521
2013/10/01,04:10:01,064,069,078,1.4,1.5,1.7,24.3,84.8,1004.5,0.00,0,0.0,////,0.0,0,0.0,////,22.9,0.0,12.3,3.521
2013/10/01,04:20:01,090,102,113,1.1,1.7,2.3,24.7,82.4,1004.5,0.00,0,0.0,////,0.0,0,0.0,////,23.4,0.0,12.3,3.521
2013/10/01,04:30:01,092,100,111,2.6,2.8,3.0,24.9,78.9,1004.5,0.00,0,0.0,////,0.0,0,0.0,////,23.6,0.0,12.3,3.523
2013/10/01,04:40:01,083,084,084,2.0,2.1,2.2,25.1,78.2,1004.5,0.00,0,0.0,////,0.0,0,0.0,////,23.7,0.0,12.3,3.521
2013/10/01,04:50:01,064,074,093,2.3,2.4,2.7,25.1,78.3,1004.5,0.00,0,0.0,////,0.0,0,0.0,////,23.7,0.0,12.3,3.523
2013/10/01,05:00:01,067,074,084,1.7,2.1,2.6,25.1,76.9,1004.6,0.00,0,0.0,////,0.0,0,0.0,////,23.9,0.0,12.3,3.521
2013/10/01,05:10:01,099,100,102,1.2,1.4,1.6,25.2,76.2,1004.6,0.00,0,0.0,////,0.0,0,0.0,////,24.1,0.0,12.3,3.521
2013/10/01,05:20:01,062,071,084,0.7,1.2,2.0,25.2,74.5,1004.6,0.00,0,0.0,////,0.0,0,0.0,////,23.9,0.0,12.3,3.523
2013/10/01,05:30:01,061,076,087,0.9,1.1,1.3,25.2,74.5,1004.7,0.00,0,0.0,////,0.0,0,0.0,////,24.1,0.0,12.3,3.521
2013/10/01,05:40:01,026,035,051,1.1,1.5,1.7,25.2,75.1,1004.8,0.00,0,0.0,////,0.0,0,0.0,////,23.9,0.0,12.3,3.521
2013/10/01,05:50:01,077,085,095,3.2,3.3,3.4,25.1,75.4,1004.8,0.00,0,0.0,////,0.0,0,0.0,////,23.9,0.0,12.3,3.521
2013/10/01,06:00:01,042,052,060,1.5,2.2,2.7,25.3,75.4,1005.0,0.00,0,0.0,////,0.0,0,0.0,////,24.1,0.0,12.3,3.523
2013/10/01,06:10:01,058,066,072,1.6,1.8,1.9,25.1,75.0,1005.0,0.00,0,0.0,////,0.0,0,0.0,////,23.9,0.0,12.3,3.521
2013/10/01,06:20:01,029,069,100,1.2,1.3,1.6,25.1,75.1,1005.0,0.00,0,0.0,////,0.0,0,0.0,////,23.9,0.0,12.3,3.521
2013/10/01,06:30:01,069,077,094,0.7,1.0,1.3,25.2,75.7,1005.0,0.00,0,0.0,////,0.0,0,0.0,////,23.9,0.0,12.3,3.523
2013/10/01,06:40:01,080,085,089,1.2,1.6,1.9,25.2,76.4,1005.1,0.00,0,0.0,////,0.0,0,0.0,////,23.4,0.0,12.3,3.521
2013/10/01,06:50:01,018,040,062,1.0,1.4,1.7,25.3,76.4,1005.2,0.00,0,0.0,////,0.0,0,0.0,////,24.6,0.0,12.3,3.521
2013/10/01,07:00:01,032,037,042,2.2,2.5,2.7,25.5,75.8,1005.3,0.00,0,0.0,////,0.0,0,0.0,////,25.5,0.0,12.3,3.521
2013/10/01,07:10:01,050,061,074,2.4,2.6,2.8,25.8,75.7,1005.3,0.00,0,0.0,////,0.0,0,0.0,////,25.6,0.0,12.3,3.521
2013/10/01,07:20:01,047,061,078,1.2,1.4,1.6,26.1,74.7,1005.4,0.00,0,0.0,////,0.0,0,0.0,////,26.2,0.0,12.3,3.521
2013/10/01,07:30:01,030,035,039,3.6,3.9,4.2,26.3,73.1,1005.4,0.00,0,0.0,////,0.0,0,0.0,////,26.8,0.0,12.3,3.521
2013/10/01,07:40:01,047,055,061,2.0,3.0,3.9,26.5,72.1,1005.5,0.00,0,0.0,////,0.0,0,0.0,////,27.0,0.0,12.3,3.521
2013/10/01,07:50:01,028,037,052,3.3,3.7,3.9,26.7,72.7,1005.5,0.00,0,0.0,////,0.0,0,0.0,////,27.4,0.0,12.3,3.521
2013/10/01,08:00:01,041,046,053,1.9,2.1,2.5,26.7,72.6,1005.5,0.00,0,0.0,////,0.0,0,0.0,////,27.5,0.0,12.3,3.520
2013/10/01,08:10:01,354,034,074,1.8,2.6,3.6,27.0,71.0,1005.6,0.00,0,0.0,////,0.0,0,0.0,////,27.7,0.0,12.3,3.521
2013/10/01,08:20:01,047,049,053,4.4,4.6,4.7,27.2,68.9,1005.6,0.00,0,0.0,////,0.0,0,0.0,////,28.2,0.0,12.3,3.521
2013/10/01,08:30:01,018,028,044,4.1,4.5,5.0,27.2,69.4,1005.6,0.00,0,0.0,////,0.0,0,0.0,////,28.4,0.0,12.3,3.521
2013/10/01,08:40:01,358,013,021,2.4,3.6,4.2,27.7,68.6,1005.6,0.00,0,0.0,////,0.0,0,0.0,////,28.9,0.0,12.3,3.520
2013/10/01,08:50:01,030,040,047,3.8,4.0,4.3,27.9,67.4,1005.6,0.00,0,0.0,////,0.0,0,0.0,////,29.3,0.0,12.3,3.521
2013/10/01,09:00:01,033,041,051,4.9,5.2,5.5,28.0,66.1,1005.6,0.00,0,0.0,////,0.0,0,0.0,////,29.8,0.0,12.3,3.521
2013/10/01,09:10:01,066,076,086,2.9,3.7,4.2,28.0,66.6,1005.6,0.00,0,0.0,////,0.0,0,0.0,////,29.4,0.0,12.3,3.520
2013/10/01,09:20:01,021,026,028,3.4,4.2,4.8,27.5,65.2,1005.6,0.00,0,0.0,////,0.0,0,0.0,////,28.7,0.0,12.3,3.521
2013/10/01,09:30:01,030,038,047,5.4,5.8,6.4,28.0,66.2,1005.6,0.00,0,0.0,////,0.0,0,0.0,////,29.3,0.0,12.3,3.521
2013/10/01,09:40:01,021,036,057,2.1,3.6,5.1,27.3,66.9,1005.6,0.00,0,0.0,////,0.0,0,0.0,////,28.2,0.0,12.3,3.521
2013/10/01,09:50:01,035,056,086,1.5,3.3,5.3,27.0,73.1,1005.6,0.00,0,0.0,////,0.0,0,0.0,////,27.2,0.0,12.3,3.521
2013/10/01,10:00:01,057,073,085,2.1,3.0,3.6,26.8,70.9,1005.6,0.00,0,0.0,////,0.0,0,0.0,////,27.4,0.0,12.3,3.521
2013/10/01,10:10:01,066,079,089,1.7,2.5,3.0,27.0,70.7,1005.5,0.00,0,0.0,////,0.0,0,0.0,////,27.5,0.0,12.3,3.520
2013/10/01,10:20:01,038,064,085,1.8,2.0,2.2,27.3,71.3,1005.5,0.00,0,0.0,////,0.0,0,0.0,////,28.4,0.0,12.3,3.521
2013/10/01,10:30:01,018,031,040,4.1,4.5,5.0,27.5,70.9,1005.4,0.00,0,0.0,////,0.0,0,0.0,////,28.6,0.0,12.3,3.523
2013/10/01,10:40:01,013,023,034,4.5,4.7,5.0,27.4,69.8,1005.3,0.00,0,0.0,////,0.0,0,0.0,////,28.7,0.0,12.3,3.521
2013/10/01,10:50:01,036,070,089,2.5,3.4,4.3,27.3,70.5,1005.2,0.00,0,0.0,////,0.0,0,0.0,////,28.2,0.0,12.3,3.521
2013/10/01,11:00:01,007,020,035,2.0,2.9,3.6,28.0,67.7,1005.2,0.00,0,0.0,////,0.0,0,0.0,////,28.7,0.0,12.3,3.520
2013/10/01,11:10:01,048,073,108,2.6,3.2,4.1,28.7,62.7,1005.2,0.00,0,0.0,////,0.0,0,0.0,////,31.0,0.0,12.3,3.521
2013/10/01,11:20:01,025,045,061,1.8,3.1,4.1,28.2,63.6,1005.1,0.00,0,0.0,////,0.0,0,0.0,////,30.5,0.0,12.3,3.521
2013/10/01,11:30:01,032,040,047,4.6,5.5,6.3,28.2,63.8,1005.1,0.00,0,0.0,////,0.0,0,0.0,////,30.0,0.0,12.3,3.520
2013/10/01,11:40:01,028,046,059,4.4,5.4,6.3,28.2,62.9,1005.1,0.00,0,0.0,////,0.0,0,0.0,////,30.0,0.0,12.3,3.521
2013/10/01,11:50:01,040,049,062,4.3,5.7,6.5,28.3,63.9,1005.0,0.00,0,0.0,////,0.0,0,0.0,////,30.0,0.0,12.3,3.521
2013/10/01,12:00:01,029,035,040,2.6,3.2,3.6,28.3,63.7,1004.9,0.00,0,0.0,////,0.0,0,0.0,////,30.1,0.0,12.3,3.520
2013/10/01,12:10:01,357,015,026,4.2,4.6,5.1,28.4,64.1,1005.0,0.00,0,0.0,////,0.0,0,0.0,////,30.3,0.0,12.3,3.521
2013/10/01,12:20:01,041,047,057,4.1,4.4,5.0,28.1,65.6,1004.8,0.00,0,0.0,////,0.0,0,0.0,////,30.0,0.0,12.3,3.521
2013/10/01,12:30:01,008,016,024,3.5,3.8,4.2,28.4,63.9,1004.7,0.00,0,0.0,////,0.0,0,0.0,////,30.3,0.0,12.3,3.521
2013/10/01,12:40:01,070,076,082,2.4,3.4,4.5,28.3,64.6,1004.6,0.00,0,0.0,////,0.0,0,0.0,////,30.0,0.0,12.3,3.521
2013/10/01,12:50:01,057,078,094,4.5,4.8,5.2,28.5,59.7,1004.5,0.00,0,0.0,////,0.0,0,0.0,////,31.2,0.0,12.3,3.521
2013/10/01,13:00:01,034,053,072,2.7,3.3,3.6,28.3,61.8,1004.4,0.00,0,0.0,////,0.0,0,0.0,////,30.5,0.0,12.3,3.521
2013/10/01,13:10:01,071,079,083,3.1,3.4,3.8,28.2,63.5,1004.4,0.00,0,0.0,////,0.0,0,0.0,////,30.3,0.0,12.3,3.521
2013/10/01,13:20:01,063,070,080,1.5,1.7,2.0,28.5,63.0,1004.4,0.00,0,0.0,////,0.0,0,0.0,////,31.0,0.0,12.3,3.521
2013/10/01,13:30:01,025,036,051,2.4,2.9,3.4,28.4,61.3,1004.3,0.00,0,0.0,////,0.0,0,0.0,////,31.0,0.0,12.3,3.520
2013/10/01,13:40:01,038,046,056,3.3,3.9,4.5,28.4,61.6,1004.2,0.00,0,0.0,////,0.0,0,0.0,////,30.8,0.0,12.3,3.521
2013/10/01,13:50:01,044,066,088,2.3,2.5,2.7,28.8,60.3,1004.1,0.00,0,0.0,////,0.0,0,0.0,////,31.0,0.0,12.3,3.520
2013/10/01,14:00:01,018,031,039,4.1,4.9,5.9,28.9,60.8,1004.0,0.00,0,0.0,////,0.0,0,0.0,////,31.2,0.0,12.3,3.520
2013/10/01,14:10:01,058,066,075,3.8,4.0,4.3,28.5,61.5,1003.9,0.00,0,0.0,////,0.0,0,0.0,////,31.0,0.0,12.3,3.520
2013/10/01,14:20:01,074,076,079,3.3,3.7,4.4,28.3,62.9,1003.8,0.00,0,0.0,////,0.0,0,0.0,////,30.8,0.0,12.3,3.521
2013/10/01,14:30:01,055,061,065,2.9,3.6,4.3,28.6,61.1,1003.8,0.00,0,0.0,////,0.0,0,0.0,////,30.3,0.0,12.3,3.523
2013/10/01,14:40:01,022,076,144,1.1,1.8,2.7,28.3,60.5,1003.7,0.00,0,0.0,////,0.0,0,0.0,////,30.3,0.0,12.3,3.520
2013/10/01,14:50:01,055,070,084,4.6,6.0,7.0,28.4,60.9,1003.6,0.00,0,0.0,////,0.0,0,0.0,////,30.3,0.0,12.3,3.521
2013/10/01,15:00:01,098,112,136,2.1,2.4,2.7,28.0,62.5,1003.6,0.00,0,0.0,////,0.0,0,0.0,////,30.3,0.0,12.3,3.521
2013/10/01,15:10:01,061,067,074,4.2,4.4,4.8,28.1,64.0,1003.4,0.00,0,0.0,////,0.0,0,0.0,////,29.6,0.0,12.3,3.520
2013/10/01,15:20:01,068,071,075,4.8,6.2,7.0,28.1,63.2,1003.4,0.00,0,0.0,////,0.0,0,0.0,////,29.6,0.0,12.3,3.521
2013/10/01,15:30:01,001,018,028,4.7,5.1,5.4,28.3,63.0,1003.4,0.00,0,0.0,////,0.0,0,0.0,////,29.6,0.0,12.3,3.520
2013/10/01,15:40:01,060,070,078,3.3,4.1,5.1,28.1,64.5,1003.4,0.00,0,0.0,////,0.0,0,0.0,////,29.6,0.0,12.3,3.523
2013/10/01,15:50:01,049,058,068,3.2,3.5,4.0,28.0,64.3,1003.3,0.00,0,0.0,////,0.0,0,0.0,////,29.4,0.0,12.3,3.521
2013/10/01,16:00:01,044,048,051,3.4,4.0,4.8,27.9,63.7,1003.2,0.00,0,0.0,////,0.0,0,0.0,////,29.3,0.0,12.3,3.520
2013/10/01,16:10:01,038,050,066,3.2,3.4,3.6,27.9,64.1,1003.1,0.00,0,0.0,////,0.0,0,0.0,////,29.3,0.0,12.3,3.523
2013/10/01,16:20:01,032,064,085,3.4,4.1,4.9,27.6,63.5,1003.1,0.00,0,0.0,////,0.0,0,0.0,////,29.4,0.0,12.3,3.520
2013/10/01,16:30:01,065,067,070,2.4,2.9,3.6,27.7,65.3,1003.1,0.00,0,0.0,////,0.0,0,0.0,////,28.7,0.0,12.3,3.521
2013/10/01,16:40:01,028,043,055,2.0,2.6,3.2,27.6,66.9,1003.1,0.00,0,0.0,////,0.0,0,0.0,////,29.3,0.0,12.3,3.520
2013/10/01,16:50:01,082,087,092,2.8,3.0,3.2,27.5,65.7,1003.1,0.00,0,0.0,////,0.0,0,0.0,////,28.2,0.0,12.3,3.521
2013/10/01,17:00:01,043,051,058,2.8,3.0,3.2,27.3,65.3,1003.0,0.00,0,0.0,////,0.0,0,0.0,////,28.1,0.0,12.3,3.521
2013/10/01,17:10:01,041,047,053,3.0,3.2,3.4,27.2,65.2,1003.1,0.00,0,0.0,////,0.0,0,0.0,////,27.5,0.0,12.3,3.521
2013/10/01,17:20:01,064,076,086,1.7,2.1,2.6,27.1,67.7,1003.1,0.00,0,0.0,////,0.0,0,0.0,////,27.4,0.0,12.3,3.520
2013/10/01,17:30:01,054,057,059,1.9,2.2,2.5,26.9,68.2,1003.1,0.00,0,0.0,////,0.0,0,0.0,////,27.0,0.0,12.3,3.520
2013/10/01,17:40:01,052,064,074,2.1,2.6,2.9,26.8,69.1,1003.0,0.00,0,0.0,////,0.0,0,0.0,////,26.7,0.0,12.3,3.521
2013/10/01,17:50:01,041,046,053,3.5,3.9,4.2,26.7,70.0,1002.9,0.00,0,0.0,////,0.0,0,0.0,////,26.2,0.0,12.3,3.520
2013/10/01,18:00:01,015,049,067,1.5,1.8,2.2,26.5,69.8,1003.0,0.00,0,0.0,////,0.0,0,0.0,////,25.8,0.0,12.3,3.521
2013/10/01,18:10:01,012,019,024,3.6,3.9,4.1,26.6,69.2,1002.9,0.00,0,0.0,////,0.0,0,0.0,////,26.2,0.0,12.3,3.521
2013/10/01,18:20:01,004,019,031,2.8,3.1,3.5,26.6,69.5,1003.0,0.00,0,0.0,////,0.0,0,0.0,////,25.6,0.0,12.3,3.521
2013/10/01,18:30:01,023,031,043,3.1,3.4,3.8,26.5,70.1,1003.1,0.00,0,0.0,////,0.0,0,0.0,////,25.6,0.0,12.3,3.521
2013/10/01,18:40:01,028,040,056,3.5,3.9,4.3,26.7,70.8,1003.3,0.00,0,0.0,////,0.0,0,0.0,////,25.8,0.0,12.3,3.521
2013/10/01,18:50:01,040,073,093,1.3,1.7,2.0,26.6,70.8,1003.3,0.00,0,0.0,////,0.0,0,0.0,////,25.8,0.0,12.3,3.520
2013/10/01,19:00:01,049,071,089,1.0,1.1,1.3,26.5,71.5,1003.4,0.00,0,0.0,////,0.0,0,0.0,////,25.5,0.0,12.3,3.520
2013/10/01,19:10:01,048,055,063,2.8,3.1,3.3,26.5,71.5,1003.3,0.00,0,0.0,////,0.0,0,0.0,////,25.5,0.0,12.3,3.523
2013/10/01,19:20:01,014,029,040,3.7,4.1,4.4,26.7,72.2,1003.4,0.00,0,0.0,////,0.0,0,0.0,////,25.6,0.0,12.3,3.524
2013/10/01,19:30:01,017,021,023,3.3,4.3,5.1,26.8,73.6,1003.4,0.00,0,0.0,////,0.0,0,0.0,////,25.8,0.0,12.3,3.521
2013/10/01,19:40:01,022,033,042,4.0,4.7,5.4,26.7,73.9,1003.6,0.00,0,0.0,////,0.0,0,0.0,////,25.8,0.0,12.3,3.521
2013/10/01,19:50:01,001,009,019,3.2,3.8,4.1,26.8,74.9,1003.6,0.06,110,0.4,////,0.0,0,0.0,////,25.8,0.0,12.3,3.521
2013/10/01,20:00:01,050,058,063,3.6,3.9,4.3,26.1,76.4,1003.8,0.01,80,0.0,////,0.0,0,0.0,////,25.0,0.0,12.3,3.521
2013/10/01,20:10:01,359,017,044,1.9,2.4,3.0,26.2,74.4,1003.8,0.00,0,0.0,////,0.0,0,0.0,////,25.1,0.0,12.3,3.523
2013/10/01,20:20:01,037,043,049,2.8,3.8,4.8,26.3,74.9,1003.9,0.00,0,0.0,////,0.0,0,0.0,////,25.3,0.0,12.3,3.521
2013/10/01,20:30:01,034,048,060,2.6,3.0,3.6,26.2,75.4,1004.0,0.00,0,0.0,////,0.0,0,0.0,////,25.3,0.0,12.3,3.521
2013/10/01,20:40:01,028,040,052,3.3,3.6,4.1,26.2,73.8,1004.0,0.00,0,0.0,////,0.0,0,0.0,////,25.1,0.0,12.3,3.521
2013/10/01,20:50:01,041,045,051,2.1,2.5,2.8,26.1,74.7,1004.1,0.00,0,0.0,////,0.0,0,0.0,////,25.0,0.0,12.3,3.521
2013/10/01,21:00:01,068,077,083,1.9,2.8,4.0,26.1,73.8,1004.2,0.00,0,0.0,////,0.0,0,0.0,////,25.0,0.0,12.3,3.524
2013/10/01,21:10:01,053,074,099,2.2,2.4,2.6,26.1,74.5,1004.3,0.00,0,0.0,////,0.0,0,0.0,////,25.1,0.0,12.3,3.521
2013/10/01,21:20:01,035,045,059,2.2,2.5,2.8,26.1,75.0,1004.3,0.00,0,0.0,////,0.0,0,0.0,////,25.0,0.0,12.3,3.521
2013/10/01,21:30:01,062,078,088,2.6,2.8,2.9,26.2,76.6,1004.4,0.00,0,0.0,////,0.0,0,0.0,////,25.0,0.0,12.3,3.520
2013/10/01,21:40:01,043,068,084,2.5,2.6,2.8,26.0,72.7,1004.5,0.00,0,0.0,////,0.0,0,0.0,////,25.0,0.0,12.3,3.521
2013/10/01,21:50:01,035,043,056,3.0,3.2,3.4,26.1,71.7,1004.6,0.00,0,0.0,////,0.0,0,0.0,////,25.1,0.0,12.3,3.521
2013/10/01,22:00:01,065,072,079,2.2,2.5,2.8,26.2,70.0,1004.8,0.00,0,0.0,////,0.0,0,0.0,////,25.1,0.0,12.3,3.523
2013/10/01,22:10:01,075,081,084,2.2,2.8,3.3,26.4,71.3,1004.8,0.00,0,0.0,////,0.0,0,0.0,////,25.3,0.0,12.3,3.519
2013/10/01,22:20:01,102,114,122,0.5,1.0,1.3,26.4,72.4,1004.7,0.00,0,0.0,////,0.0,0,0.0,////,25.3,0.0,12.3,3.521
2013/10/01,22:30:01,077,086,099,1.2,1.5,1.7,26.3,73.3,1004.7,0.00,0,0.0,////,0.0,0,0.0,////,25.1,0.0,12.3,3.521
2013/10/01,22:40:01,090,094,101,2.1,2.5,3.0,26.3,71.2,1004.8,0.00,0,0.0,////,0.0,0,0.0,////,25.1,0.0,12.3,3.521
2013/10/01,22:50:01,080,090,099,0.6,2.1,3.3,26.3,71.0,1004.8,0.00,0,0.0,////,0.0,0,0.0,////,25.3,0.0,12.3,3.520
2013/10/01,23:00:01,094,097,101,3.0,3.3,3.5,26.6,71.9,1004.7,0.00,0,0.0,////,0.0,0,0.0,////,25.6,0.0,12.3,3.521
2013/10/01,23:10:01,090,107,117,3.0,3.8,4.3,26.5,69.9,1004.5,0.00,0,0.0,////,0.0,0,0.0,////,25.6,0.0,12.3,3.520
2013/10/01,23:20:01,061,072,082,2.3,2.5,2.6,26.5,71.2,1004.5,0.00,0,0.0,////,0.0,0,0.0,////,25.5,0.0,12.3,3.521
2013/10/01,23:30:01,061,097,118,1.5,1.6,1.8,26.2,75.1,1004.4,0.00,0,0.0,////,0.0,0,0.0,////,25.1,0.0,12.3,3.521
2013/10/01,23:40:01,089,091,093,2.2,2.9,3.6,25.9,75.2,1004.2,0.00,0,0.0,////,0.0,0,0.0,////,24.8,0.0,12.3,3.521
2013/10/01,23:50:01,037,073,099,1.0,1.2,1.3,25.8,68.9,1004.0,0.00,0,0.0,////,0.0,0,0.0,////,24.3,0.0,12.3,3.523
2013/10/02,00:00:01,056,069,087,1.9,2.1,2.2,26.1,69.0,1003.9,0.00,0,0.0,////,0.0,0,0.0,////,24.8,0.0,12.3,3.521
2013/10/02,00:10:01,066,071,075,1.2,1.5,1.8,26.1,73.4,1003.9,0.00,0,0.0,////,0.0,0,0.0,////,24.6,0.0,12.4,3.523
2013/10/02,00:20:01,078,085,092,1.4,1.6,1.7,26.1,75.0,1003.8,0.00,0,0.0,////,0.0,0,0.0,////,24.6,0.0,12.3,3.523
2013/10/02,00:30:01,091,094,098,1.2,1.4,1.6,25.9,75.7,1003.7,0.00,0,0.0,////,0.0,0,0.0,////,24.8,0.0,12.3,3.521
2013/10/02,00:40:01,329,005,032,1.0,1.2,1.4,25.8,76.1,1003.6,0.00,0,0.0,////,0.0,0,0.0,////,24.6,0.0,12.3,3.521
2013/10/02,00:50:01,075,082,086,1.5,2.2,2.6,25.8,76.9,1003.7,0.00,0,0.0,////,0.0,0,0.0,////,24.4,0.0,12.3,3.521
2013/10/02,01:00:01,063,081,094,1.8,2.1,2.4,25.7,76.0,1003.7,0.00,0,0.0,////,0.0,0,0.0,////,24.6,0.0,12.3,3.521
2013/10/02,01:10:01,067,077,092,1.9,2.0,2.1,25.9,75.3,1003.6,0.00,0,0.0,////,0.0,0,0.0,////,24.8,0.0,12.3,3.521
2013/10/02,01:20:01,029,037,051,1.3,1.6,2.1,25.9,75.3,1003.5,0.00,0,0.0,////,0.0,0,0.0,////,24.6,0.0,12.3,3.521
2013/10/02,01:30:01,069,073,075,2.1,2.3,2.6,25.7,75.1,1003.4,0.00,0,0.0,////,0.0,0,0.0,////,24.6,0.0,12.3,3.521
2013/10/02,01:40:01,058,060,063,0.7,0.9,1.0,25.7,74.7,1003.4,0.00,0,0.0,////,0.0,0,0.0,////,24.8,0.0,12.3,3.521
2013/10/02,01:50:01,065,076,091,1.2,1.4,1.5,25.8,74.5,1003.3,0.00,0,0.0,////,0.0,0,0.0,////,24.4,0.0,12.3,3.521
2013/10/02,02:00:01,030,036,040,1.7,1.9,2.1,25.7,76.4,1003.2,0.00,0,0.0,////,0.0,0,0.0,////,24.4,0.0,12.3,3.520
2013/10/02,02:10:01,052,057,064,1.2,1.5,2.0,25.6,76.6,1003.1,0.00,0,0.0,////,0.0,0,0.0,////,24.4,0.0,12.3,3.521
2013/10/02,02:20:01,068,071,074,1.0,1.5,1.8,25.5,76.9,1003.1,0.00,0,0.0,////,0.0,0,0.0,////,24.8,0.0,12.3,3.523
2013/10/02,02:30:01,085,108,127,0.6,0.7,0.9,25.5,77.0,1003.1,0.00,0,0.0,////,0.0,0,0.0,////,24.3,0.0,12.3,3.519
2013/10/02,02:40:01,101,106,109,1.3,1.4,1.6,25.6,77.3,1003.0,0.00,0,0.0,////,0.0,0,0.0,////,24.4,0.0,12.3,3.521
2013/10/02,02:50:01,030,041,049,2.8,3.6,4.1,25.8,80.3,1002.9,0.00,0,0.0,////,0.0,0,0.0,////,24.4,0.0,12.3,3.523
2013/10/02,03:00:01,036,043,053,2.4,2.9,3.5,25.7,81.8,1002.8,0.00,0,0.0,////,0.0,0,0.0,////,24.6,0.0,12.3,3.523
2013/10/02,03:10:01,011,042,066,3.3,3.8,4.5,25.5,82.7,1002.8,0.00,0,0.0,////,0.0,0,0.0,////,24.6,0.0,12.3,3.521
2013/10/02,03:20:01,058,063,068,5.1,5.4,5.8,25.3,82.9,1002.7,0.00,0,0.0,////,0.0,0,0.0,////,24.4,0.0,12.3,3.521
2013/10/02,03:30:01,023,031,038,3.1,4.0,4.7,25.3,82.6,1002.7,0.00,0,0.0,////,0.0,0,0.0,////,24.4,0.0,12.3,3.524
2013/10/02,03:40:01,048,051,055,2.6,3.0,3.5,25.3,83.0,1002.7,0.00,0,0.0,////,0.0,0,0.0,////,24.1,0.0,12.3,3.521
2013/10/02,03:50:01,055,063,069,1.6,1.9,2.3,25.3,82.6,1002.6,0.00,0,0.0,////,0.0,0,0.0,////,24.4,0.0,12.3,3.523
2013/10/02,04:00:01,035,044,049,3.1,3.2,3.3,25.1,81.5,1002.5,0.00,0,0.0,////,0.0,0,0.0,////,24.1,0.0,12.3,3.521
2013/10/02,04:10:01,033,039,048,3.2,3.5,3.7,25.1,81.3,1002.5,0.00,0,0.0,////,0.0,0,0.0,////,24.3,0.0,12.3,3.521
2013/10/02,04:20:01,048,053,058,2.4,2.8,3.3,25.0,81.1,1002.5,0.00,0,0.0,////,0.0,0,0.0,////,24.1,0.0,12.3,3.523
2013/10/02,04:30:01,343,003,027,0.5,0.9,1.2,25.1,80.5,1002.5,0.00,0,0.0,////,0.0,0,0.0,////,24.1,0.0,12.3,3.521
2013/10/02,04:40:01,061,066,069,2.6,2.9,3.1,25.1,79.3,1002.5,0.00,0,0.0,////,0.0,0,0.0,////,24.3,0.0,12.3,3.521
2013/10/02,04:50:01,070,073,076,1.4,1.6,1.8,25.3,77.3,1002.6,0.00,0,0.0,////,0.0,0,0.0,////,24.3,0.0,12.3,3.521
2013/10/02,05:00:01,041,063,081,1.5,2.0,2.5,25.5,75.2,1002.6,0.00,0,0.0,////,0.0,0,0.0,////,24.3,0.0,12.3,3.521
2013/10/02,05:10:01,359,019,030,0.8,1.2,1.5,25.5,75.4,1002.6,0.00,0,0.0,////,0.0,0,0.0,////,24.4,0.0,12.3,3.521
2013/10/02,05:20:01,035,041,047,4.0,4.1,4.3,25.5,74.9,1002.6,0.00,0,0.0,////,0.0,0,0.0,////,24.3,0.0,12.3,3.521
2013/10/02,05:30:01,009,085,129,0.5,0.7,1.1,25.6,74.2,1002.5,0.00,0,0.0,////,0.0,0,0.0,////,24.3,0.0,12.3,3.521
2013/10/02,05:40:01,351,043,096,0.8,1.2,1.7,25.6,75.1,1002.5,0.00,0,0.0,////,0.0,0,0.0,////,24.3,0.0,12.3,3.521
2013/10/02,05:50:01,007,033,049,1.5,1.7,1.9,25.5,77.4,1002.6,0.00,0,0.0,////,0.0,0,0.0,////,24.3,0.0,12.3,3.523
2013/10/02,06:00:01,026,033,038,1.9,2.3,2.5,25.4,76.9,1002.7,0.00,0,0.0,////,0.0,0,0.0,////,24.3,0.0,12.3,3.519
2013/10/02,06:10:01,028,042,052,2.2,2.4,2.6,25.3,77.4,1002.8,0.00,0,0.0,////,0.0,0,0.0,////,24.1,0.0,12.3,3.521
2013/10/02,06:20:01,035,042,051,3.1,3.5,3.9,25.2,77.9,1002.9,0.00,0,0.0,////,0.0,0,0.0,////,24.1,0.0,12.3,3.523
2013/10/02,06:30:01,046,052,059,2.5,3.2,3.8,25.3,78.6,1002.9,0.00,0,0.0,////,0.0,0,0.0,////,24.3,0.0,12.3,3.521
2013/10/02,06:40:01,076,086,092,1.1,1.6,1.9,25.3,78.3,1003.1,0.00,0,0.0,////,0.0,0,0.0,////,24.4,0.0,12.3,3.521
2013/10/02,06:50:01,050,061,073,1.9,2.1,2.4,25.5,77.3,1003.0,0.00,0,0.0,////,0.0,0,0.0,////,25.0,0.0,12.3,3.521
2013/10/02,07:00:01,054,057,061,2.2,2.5,2.8,25.6,77.6,1003.1,0.00,0,0.0,////,0.0,0,0.0,////,25.1,0.0,12.3,3.521
2013/10/02,07:10:01,065,076,085,1.9,2.2,2.5,25.8,77.4,1003.1,0.00,0,0.0,////,0.0,0,0.0,////,25.8,0.0,12.3,3.523
2013/10/02,07:20:01,032,042,049,3.9,4.2,4.5,25.8,77.4,1003.2,0.00,0,0.0,////,0.0,0,0.0,////,25.6,0.0,12.2,3.521
2013/10/02,07:30:01,056,062,067,2.2,2.7,3.1,26.1,75.5,1003.3,0.00,0,0.0,////,0.0,0,0.0,////,26.3,0.0,12.3,3.521
2013/10/02,07:40:01,044,051,057,3.4,3.6,3.8,26.2,74.0,1003.3,0.00,0,0.0,////,0.0,0,0.0,////,26.7,0.0,12.3,3.520
2013/10/02,07:50:01,037,056,068,4.6,5.0,5.3,26.4,73.2,1003.4,0.00,0,0.0,////,0.0,0,0.0,////,26.7,0.0,12.3,3.521
2013/10/02,08:00:01,358,002,004,1.8,2.2,2.6,26.6,71.2,1003.5,0.00,0,0.0,////,0.0,0,0.0,////,27.0,0.0,12.3,3.521
2013/10/02,08:10:01,040,053,060,2.5,3.2,3.7,26.7,68.3,1003.6,0.00,0,0.0,////,0.0,0,0.0,////,27.7,0.0,12.2,3.520
2013/10/02,08:20:01,047,048,048,2.3,2.8,3.3,26.9,64.8,1003.6,0.00,0,0.0,////,0.0,0,0.0,////,28.1,0.0,12.3,3.521
2013/10/02,08:30:01,047,049,054,2.6,3.1,3.8,27.1,65.3,1003.5,0.00,0,0.0,////,0.0,0,0.0,////,28.4,0.0,12.3,3.521
2013/10/02,08:40:01,055,061,064,2.2,2.5,2.9,27.2,64.6,1003.5,0.00,0,0.0,////,0.0,0,0.0,////,28.6,0.0,12.3,3.521
2013/10/02,08:50:01,062,080,096,1.6,1.8,2.0,27.2,63.7,1003.7,0.00,0,0.0,////,0.0,0,0.0,////,28.9,0.0,12.3,3.521
2013/10/02,09:00:01,011,038,070,1.4,1.7,1.9,27.5,63.4,1003.7,0.00,0,0.0,////,0.0,0,0.0,////,28.9,0.0,12.3,3.521
2013/10/02,09:10:01,070,086,096,2.3,2.9,3.2,27.7,61.4,1003.8,0.00,0,0.0,////,0.0,0,0.0,////,29.3,0.0,12.3,3.520
2013/10/02,09:20:01,017,027,038,2.0,2.5,2.9,27.7,62.3,1003.8,0.00,0,0.0,////,0.0,0,0.0,////,29.3,0.0,12.3,3.521
2013/10/02,09:30:01,042,053,063,2.1,2.3,2.5,27.9,60.3,1003.7,0.00,0,0.0,////,0.0,0,0.0,////,29.6,0.0,12.3,3.520
2013/10/02,09:40:01,090,092,097,2.4,2.9,3.3,28.0,61.8,1003.6,0.00,0,0.0,////,0.0,0,0.0,////,30.0,0.0,12.3,3.521
2013/10/02,09:50:01,058,086,100,1.1,1.6,2.1,28.2,60.0,1003.6,0.00,0,0.0,////,0.0,0,0.0,////,30.6,0.0,12.3,3.521
2013/10/02,10:00:01,023,033,047,2.7,3.0,3.3,28.6,59.0,1003.5,0.00,0,0.0,////,0.0,0,0.0,////,31.0,0.0,12.3,3.520
2013/10/02,10:10:01,052,054,058,3.6,4.2,4.6,27.9,60.9,1003.5,0.00,0,0.0,////,0.0,0,0.0,////,30.3,0.0,12.3,3.520
2013/10/02,10:20:01,049,057,062,2.8,3.3,3.7,27.9,58.7,1003.4,0.00,0,0.0,////,0.0,0,0.0,////,30.3,0.0,12.3,3.521
2013/10/02,10:30:01,039,050,068,3.0,3.6,4.0,28.7,58.3,1003.5,0.00,0,0.0,////,0.0,0,0.0,////,31.5,0.0,12.3,3.520
2013/10/02,10:40:01,035,045,062,2.7,3.0,3.4,29.0,57.1,1003.5,0.00,0,0.0,////,0.0,0,0.0,////,31.8,0.0,12.3,3.520